Year,Month,Day,Hour,Minute,Value (Times are PST for temperature in C)
2020,04,12,00,00,7.50
2020,04,12,00,01,7.50
2020,04,12,00,02,7.50
2020,04,12,00,03,7.40
2020,04,12,00,04,7.40
2020,04,12,00,05,7.40
2020,04,12,00,06,7.40
2020,04,12,00,07,7.40
2020,04,12,00,08,7.40
2020,04,12,00,09,7.40
2020,04,12,00,10,7.30
2020,04,12,00,11,7.30
2020,04,12,00,12,7.30
2020,04,12,00,13,7.30
2020,04,12,00,14,7.30
2020,04,12,00,15,7.30
2020,04,12,00,16,7.30
2020,04,12,00,17,7.30
2020,04,12,00,18,7.30
2020,04,12,00,19,7.30
2020,04,12,00,20,7.30
2020,04,12,00,21,7.30
2020,04,12,00,22,7.30
2020,04,12,00,23,7.30
2020,04,12,00,24,7.20
2020,04,12,00,25,7.20
2020,04,12,00,26,7.20
2020,04,12,00,27,7.20
2020,04,12,00,28,7.20
2020,04,12,00,29,7.10
2020,04,12,00,30,7.10
2020,04,12,00,31,7.10
2020,04,12,00,32,7.10
2020,04,12,00,33,7.10
2020,04,12,00,34,7.00
2020,04,12,00,35,7.00
2020,04,12,00,36,7.00
2020,04,12,00,37,6.90
2020,04,12,00,38,6.90
2020,04,12,00,39,6.90
2020,04,12,00,40,6.80
2020,04,12,00,41,6.80
2020,04,12,00,42,6.80
2020,04,12,00,43,6.70
2020,04,12,00,44,6.70
2020,04,12,00,45,6.70
2020,04,12,00,46,6.70
2020,04,12,00,47,6.70
2020,04,12,00,48,6.70
2020,04,12,00,49,6.70
2020,04,12,00,50,6.70
2020,04,12,00,51,6.80
2020,04,12,00,52,6.80
2020,04,12,00,53,6.80
2020,04,12,00,54,6.70
2020,04,12,00,55,6.70
2020,04,12,00,56,6.80
2020,04,12,00,57,6.80
2020,04,12,00,58,6.70
2020,04,12,00,59,6.70
2020,04,12,01,00,6.70
2020,04,12,01,01,6.70
2020,04,12,01,02,6.70
2020,04,12,01,03,6.70
2020,04,12,01,04,6.70
2020,04,12,01,05,6.70
2020,04,12,01,06,6.70
2020,04,12,01,07,6.70
2020,04,12,01,08,6.60
2020,04,12,01,09,6.60
2020,04,12,01,10,6.60
2020,04,12,01,11,6.60
2020,04,12,01,12,6.60
2020,04,12,01,13,6.60
2020,04,12,01,14,6.60
2020,04,12,01,15,6.50
2020,04,12,01,16,6.50
2020,04,12,01,17,6.40
2020,04,12,01,18,6.40
2020,04,12,01,19,6.30
2020,04,12,01,20,6.30
2020,04,12,01,21,6.30
2020,04,12,01,22,6.20
2020,04,12,01,23,6.20
2020,04,12,01,24,6.20
2020,04,12,01,25,6.10
2020,04,12,01,26,6.10
2020,04,12,01,27,6.10
2020,04,12,01,28,6.10
2020,04,12,01,29,6.00
2020,04,12,01,30,6.00
2020,04,12,01,31,6.00
2020,04,12,01,32,6.00
2020,04,12,01,33,5.90
2020,04,12,01,34,5.90
2020,04,12,01,35,5.90
2020,04,12,01,36,5.90
2020,04,12,01,37,5.90
2020,04,12,01,38,5.90
2020,04,12,01,39,5.90
2020,04,12,01,40,5.90
2020,04,12,01,41,5.90
2020,04,12,01,42,5.90
2020,04,12,01,43,5.90
2020,04,12,01,44,5.80
2020,04,12,01,45,5.80
2020,04,12,01,46,5.70
2020,04,12,01,47,5.60
2020,04,12,01,48,5.60
2020,04,12,01,49,5.50
2020,04,12,01,50,5.40
2020,04,12,01,51,5.30
2020,04,12,01,52,5.30
2020,04,12,01,53,5.30
2020,04,12,01,54,5.30
2020,04,12,01,55,5.30
2020,04,12,01,56,5.20
2020,04,12,01,57,5.20
2020,04,12,01,58,5.20
2020,04,12,01,59,5.20
2020,04,12,02,00,5.20
2020,04,12,02,01,5.20
2020,04,12,02,02,5.20
2020,04,12,02,03,5.20
2020,04,12,02,04,5.20
2020,04,12,02,05,5.20
2020,04,12,02,06,5.20
2020,04,12,02,07,5.20
2020,04,12,02,08,5.20
2020,04,12,02,09,5.20
2020,04,12,02,10,5.20
2020,04,12,02,11,5.10
2020,04,12,02,12,5.10
2020,04,12,02,13,5.10
2020,04,12,02,14,5.10
2020,04,12,02,15,5.10
2020,04,12,02,16,5.20
2020,04,12,02,17,5.20
2020,04,12,02,18,5.20
2020,04,12,02,19,5.30
2020,04,12,02,20,5.30
2020,04,12,02,21,5.30
2020,04,12,02,22,5.40
2020,04,12,02,23,5.40
2020,04,12,02,24,5.50
2020,04,12,02,25,5.50
2020,04,12,02,26,5.50
2020,04,12,02,27,5.60
2020,04,12,02,28,5.60
2020,04,12,02,29,5.60
2020,04,12,02,30,5.60
2020,04,12,02,31,5.60
2020,04,12,02,32,5.60
2020,04,12,02,33,5.60
2020,04,12,02,34,5.60
2020,04,12,02,35,5.60
2020,04,12,02,36,5.70
2020,04,12,02,37,5.70
2020,04,12,02,38,5.70
2020,04,12,02,39,5.70
2020,04,12,02,40,5.70
2020,04,12,02,41,5.70
2020,04,12,02,42,5.70
2020,04,12,02,43,5.70
2020,04,12,02,44,5.70
2020,04,12,02,45,5.70
2020,04,12,02,46,5.70
2020,04,12,02,47,5.70
2020,04,12,02,48,5.70
2020,04,12,02,49,5.70
2020,04,12,02,50,5.70
2020,04,12,02,51,5.70
2020,04,12,02,52,5.70
2020,04,12,02,53,5.70
2020,04,12,02,54,5.70
2020,04,12,02,55,5.70
2020,04,12,02,56,5.70
2020,04,12,02,57,5.70
2020,04,12,02,58,5.70
2020,04,12,02,59,5.70
2020,04,12,03,00,5.70
2020,04,12,03,01,5.70
2020,04,12,03,02,5.70
2020,04,12,03,03,5.70
2020,04,12,03,04,5.60
2020,04,12,03,05,5.60
2020,04,12,03,06,5.60
2020,04,12,03,07,5.50
2020,04,12,03,08,5.50
2020,04,12,03,09,5.50
2020,04,12,03,10,5.40
2020,04,12,03,11,5.40
2020,04,12,03,12,5.40
2020,04,12,03,13,5.30
2020,04,12,03,14,5.30
2020,04,12,03,15,5.30
2020,04,12,03,16,5.20
2020,04,12,03,17,5.20
2020,04,12,03,18,5.20
2020,04,12,03,19,5.20
2020,04,12,03,20,5.20
2020,04,12,03,21,5.10
2020,04,12,03,22,5.10
2020,04,12,03,23,5.10
2020,04,12,03,24,5.10
2020,04,12,03,25,5.10
2020,04,12,03,26,5.10
2020,04,12,03,27,5.10
2020,04,12,03,28,5.10
2020,04,12,03,29,5.10
2020,04,12,03,30,5.10
2020,04,12,03,31,5.10
2020,04,12,03,32,5.10
2020,04,12,03,33,5.10
2020,04,12,03,34,5.10
2020,04,12,03,35,5.10
2020,04,12,03,36,5.10
2020,04,12,03,37,5.10
2020,04,12,03,38,5.10
2020,04,12,03,39,5.10
2020,04,12,03,40,5.10
2020,04,12,03,41,5.10
2020,04,12,03,42,5.10
2020,04,12,03,43,5.20
2020,04,12,03,44,5.20
2020,04,12,03,45,5.30
2020,04,12,03,46,5.40
2020,04,12,03,47,5.60
2020,04,12,03,48,5.80
2020,04,12,03,49,5.90
2020,04,12,03,50,6.10
2020,04,12,03,51,6.30
2020,04,12,03,52,6.50
2020,04,12,03,53,6.80
2020,04,12,03,54,7.00
2020,04,12,03,55,7.10
2020,04,12,03,56,7.30
2020,04,12,03,57,7.50
2020,04,12,03,58,7.60
2020,04,12,03,59,7.70
2020,04,12,04,00,7.80
2020,04,12,04,01,7.90
2020,04,12,04,02,7.90
2020,04,12,04,03,8.00
2020,04,12,04,04,8.00
2020,04,12,04,05,8.10
2020,04,12,04,06,8.10
2020,04,12,04,07,8.20
2020,04,12,04,08,8.20
2020,04,12,04,09,8.30
2020,04,12,04,10,8.30
2020,04,12,04,11,8.30
2020,04,12,04,12,8.30
2020,04,12,04,13,8.30
2020,04,12,04,14,8.30
2020,04,12,04,15,8.30
2020,04,12,04,16,8.30
2020,04,12,04,17,8.30
2020,04,12,04,18,8.30
2020,04,12,04,19,8.30
2020,04,12,04,20,8.30
2020,04,12,04,21,8.30
2020,04,12,04,22,8.30
2020,04,12,04,23,8.30
2020,04,12,04,24,8.30
2020,04,12,04,25,8.30
2020,04,12,04,26,8.30
2020,04,12,04,27,8.30
2020,04,12,04,28,8.30
2020,04,12,04,29,8.30
2020,04,12,04,30,8.20
2020,04,12,04,31,8.20
2020,04,12,04,32,8.20
2020,04,12,04,33,8.20
2020,04,12,04,34,8.20
2020,04,12,04,35,8.20
2020,04,12,04,36,8.20
2020,04,12,04,37,8.10
2020,04,12,04,38,8.10
2020,04,12,04,39,8.10
2020,04,12,04,40,8.10
2020,04,12,04,41,8.10
2020,04,12,04,42,8.10
2020,04,12,04,43,8.10
2020,04,12,04,44,8.10
2020,04,12,04,45,8.10
2020,04,12,04,46,8.10
2020,04,12,04,47,8.10
2020,04,12,04,48,8.10
2020,04,12,04,49,8.10
2020,04,12,04,50,8.10
2020,04,12,04,51,8.10
2020,04,12,04,52,8.20
2020,04,12,04,53,8.20
2020,04,12,04,54,8.20
2020,04,12,04,55,8.20
2020,04,12,04,56,8.20
2020,04,12,04,57,8.10
2020,04,12,04,58,8.10
2020,04,12,04,59,8.10
2020,04,12,05,00,8.10
2020,04,12,05,01,8.10
2020,04,12,05,02,8.10
2020,04,12,05,03,8.00
2020,04,12,05,04,8.10
2020,04,12,05,05,8.10
2020,04,12,05,06,8.00
2020,04,12,05,07,8.00
2020,04,12,05,08,8.00
2020,04,12,05,09,8.00
2020,04,12,05,10,8.00
2020,04,12,05,11,8.00
2020,04,12,05,12,8.00
2020,04,12,05,13,8.00
2020,04,12,05,14,8.00
2020,04,12,05,15,8.00
2020,04,12,05,16,8.10
2020,04,12,05,17,8.10
2020,04,12,05,18,8.10
2020,04,12,05,19,8.10
2020,04,12,05,20,8.10
2020,04,12,05,21,8.10
2020,04,12,05,22,8.10
2020,04,12,05,23,8.10
2020,04,12,05,24,8.10
2020,04,12,05,25,8.10
2020,04,12,05,26,8.10
2020,04,12,05,27,8.10
2020,04,12,05,28,8.10
2020,04,12,05,29,8.10
2020,04,12,05,30,8.00
2020,04,12,05,31,8.00
2020,04,12,05,32,8.00
2020,04,12,05,33,8.00
2020,04,12,05,34,8.00
2020,04,12,05,35,8.00
2020,04,12,05,36,8.00
2020,04,12,05,37,8.00
2020,04,12,05,38,8.00
2020,04,12,05,39,8.00
2020,04,12,05,40,8.00
2020,04,12,05,41,8.00
2020,04,12,05,42,8.00
2020,04,12,05,43,8.00
2020,04,12,05,44,8.00
2020,04,12,05,45,8.00
2020,04,12,05,46,8.00
2020,04,12,05,47,8.00
2020,04,12,05,48,8.00
2020,04,12,05,49,7.90
2020,04,12,05,50,7.90
2020,04,12,05,51,7.90
2020,04,12,05,52,7.90
2020,04,12,05,53,7.90
2020,04,12,05,54,7.90
2020,04,12,05,55,7.90
2020,04,12,05,56,7.90
2020,04,12,05,57,7.90
2020,04,12,05,58,7.90
2020,04,12,05,59,7.90
2020,04,12,06,00,7.90
2020,04,12,06,01,7.90
2020,04,12,06,02,7.90
2020,04,12,06,03,7.90
2020,04,12,06,04,7.90
2020,04,12,06,05,7.90
2020,04,12,06,06,7.90
2020,04,12,06,07,7.90
2020,04,12,06,08,7.90
2020,04,12,06,09,7.90
2020,04,12,06,10,7.90
2020,04,12,06,11,7.90
2020,04,12,06,12,7.90
2020,04,12,06,13,7.90
2020,04,12,06,14,7.90
2020,04,12,06,15,7.90
2020,04,12,06,16,7.90
2020,04,12,06,17,8.00
2020,04,12,06,18,8.00
2020,04,12,06,19,8.00
2020,04,12,06,20,8.00
2020,04,12,06,21,8.00
2020,04,12,06,22,8.10
2020,04,12,06,23,8.10
2020,04,12,06,24,8.10
2020,04,12,06,25,8.10
2020,04,12,06,26,8.00
2020,04,12,06,27,8.10
2020,04,12,06,28,8.10
2020,04,12,06,29,8.10
2020,04,12,06,30,8.00
2020,04,12,06,31,8.00
2020,04,12,06,32,8.00
2020,04,12,06,33,8.00
2020,04,12,06,34,8.00
2020,04,12,06,35,8.00
2020,04,12,06,36,8.00
2020,04,12,06,37,8.00
2020,04,12,06,38,8.00
2020,04,12,06,39,8.00
2020,04,12,06,40,8.00
2020,04,12,06,41,8.00
2020,04,12,06,42,8.00
2020,04,12,06,43,8.00
2020,04,12,06,44,8.00
2020,04,12,06,45,8.00
2020,04,12,06,46,8.00
2020,04,12,06,47,8.00
2020,04,12,06,48,8.00
2020,04,12,06,49,8.00
2020,04,12,06,50,7.90
2020,04,12,06,51,7.90
2020,04,12,06,52,7.90
2020,04,12,06,53,7.90
2020,04,12,06,54,7.90
2020,04,12,06,55,7.90
2020,04,12,06,56,8.00
2020,04,12,06,57,8.00
2020,04,12,06,58,8.00
2020,04,12,06,59,8.00
2020,04,12,07,00,8.00
2020,04,12,07,01,8.00
2020,04,12,07,02,8.00
2020,04,12,07,03,8.10
2020,04,12,07,04,8.10
2020,04,12,07,05,8.10
2020,04,12,07,06,8.10
2020,04,12,07,07,8.10
2020,04,12,07,08,8.10
2020,04,12,07,09,8.20
2020,04,12,07,10,8.20
2020,04,12,07,11,8.20
2020,04,12,07,12,8.20
2020,04,12,07,13,8.20
2020,04,12,07,14,8.20
2020,04,12,07,15,8.20
2020,04,12,07,16,8.20
2020,04,12,07,17,8.30
2020,04,12,07,18,8.30
2020,04,12,07,19,8.30
2020,04,12,07,20,8.30
2020,04,12,07,21,8.30
2020,04,12,07,22,8.30
2020,04,12,07,23,8.30
2020,04,12,07,24,8.40
2020,04,12,07,25,8.40
2020,04,12,07,26,8.40
2020,04,12,07,27,8.40
2020,04,12,07,28,8.40
2020,04,12,07,29,8.50
2020,04,12,07,30,8.50
2020,04,12,07,31,8.50
2020,04,12,07,32,8.60
2020,04,12,07,33,8.60
2020,04,12,07,34,8.60
2020,04,12,07,35,8.60
2020,04,12,07,36,8.60
2020,04,12,07,37,8.60
2020,04,12,07,38,8.60
2020,04,12,07,39,8.70
2020,04,12,07,40,8.70
2020,04,12,07,41,8.70
2020,04,12,07,42,8.70
2020,04,12,07,43,8.70
2020,04,12,07,44,8.70
2020,04,12,07,45,8.80
2020,04,12,07,46,8.80
2020,04,12,07,47,8.80
2020,04,12,07,48,8.80
2020,04,12,07,49,8.80
2020,04,12,07,50,8.80
2020,04,12,07,51,8.80
2020,04,12,07,52,8.80
2020,04,12,07,53,8.90
2020,04,12,07,54,8.90
2020,04,12,07,55,8.90
2020,04,12,07,56,8.90
2020,04,12,07,57,8.90
2020,04,12,07,58,9.00
2020,04,12,07,59,9.00
2020,04,12,08,00,9.00
2020,04,12,08,01,9.10
2020,04,12,08,02,9.10
2020,04,12,08,03,9.10
2020,04,12,08,04,9.20
2020,04,12,08,05,9.20
2020,04,12,08,06,9.20
2020,04,12,08,07,9.20
2020,04,12,08,08,9.20
2020,04,12,08,09,9.20
2020,04,12,08,10,9.20
2020,04,12,08,11,9.20
2020,04,12,08,12,9.30
2020,04,12,08,13,9.30
2020,04,12,08,14,9.30
2020,04,12,08,15,9.30
2020,04,12,08,16,9.30
2020,04,12,08,17,9.30
2020,04,12,08,18,9.40
2020,04,12,08,19,9.40
2020,04,12,08,20,9.40
2020,04,12,08,21,9.40
2020,04,12,08,22,9.40
2020,04,12,08,23,9.40
2020,04,12,08,24,9.40
2020,04,12,08,25,9.50
2020,04,12,08,26,9.50
2020,04,12,08,27,9.50
2020,04,12,08,28,9.50
2020,04,12,08,29,9.50
2020,04,12,08,30,9.50
2020,04,12,08,31,9.50
2020,04,12,08,32,9.50
2020,04,12,08,33,9.50
2020,04,12,08,34,9.60
2020,04,12,08,35,9.60
2020,04,12,08,36,9.60
2020,04,12,08,37,9.60
2020,04,12,08,38,9.60
2020,04,12,08,39,9.60
2020,04,12,08,40,9.70
2020,04,12,08,41,9.70
2020,04,12,08,42,9.70
2020,04,12,08,43,9.80
2020,04,12,08,44,9.80
2020,04,12,08,45,9.80
2020,04,12,08,46,9.80
2020,04,12,08,47,9.80
2020,04,12,08,48,9.80
2020,04,12,08,49,9.80
2020,04,12,08,50,9.80
2020,04,12,08,51,9.90
2020,04,12,08,52,9.90
2020,04,12,08,53,9.90
2020,04,12,08,54,9.90
2020,04,12,08,55,10.00
2020,04,12,08,56,10.00
2020,04,12,08,57,10.00
2020,04,12,08,58,10.10
2020,04,12,08,59,10.10
2020,04,12,09,00,10.20
2020,04,12,09,01,10.20
2020,04,12,09,02,10.20
2020,04,12,09,03,10.20
2020,04,12,09,04,10.10
2020,04,12,09,05,10.10
2020,04,12,09,06,10.10
2020,04,12,09,07,10.10
2020,04,12,09,08,10.10
2020,04,12,09,09,10.20
2020,04,12,09,10,10.20
2020,04,12,09,11,10.20
2020,04,12,09,12,10.20
2020,04,12,09,13,10.20
2020,04,12,09,14,10.20
2020,04,12,09,15,10.20
2020,04,12,09,16,10.30
2020,04,12,09,17,10.30
2020,04,12,09,18,10.30
2020,04,12,09,19,10.30
2020,04,12,09,20,10.30
2020,04,12,09,21,10.30
2020,04,12,09,22,10.30
2020,04,12,09,23,10.30
2020,04,12,09,24,10.30
2020,04,12,09,25,10.30
2020,04,12,09,26,10.30
2020,04,12,09,27,10.40
2020,04,12,09,28,10.40
2020,04,12,09,29,10.40
2020,04,12,09,30,10.40
2020,04,12,09,31,10.40
2020,04,12,09,32,10.50
2020,04,12,09,33,10.50
2020,04,12,09,34,10.50
2020,04,12,09,35,10.50
2020,04,12,09,36,10.50
2020,04,12,09,37,10.60
2020,04,12,09,38,10.60
2020,04,12,09,39,10.70
2020,04,12,09,40,10.80
2020,04,12,09,41,10.80
2020,04,12,09,42,10.80
2020,04,12,09,43,10.80
2020,04,12,09,44,10.80
2020,04,12,09,45,10.80
2020,04,12,09,46,10.80
2020,04,12,09,47,10.90
2020,04,12,09,48,10.90
2020,04,12,09,49,10.90
2020,04,12,09,50,10.80
2020,04,12,09,51,10.80
2020,04,12,09,52,10.80
2020,04,12,09,53,10.80
2020,04,12,09,54,10.80
2020,04,12,09,55,10.80
2020,04,12,09,56,10.80
2020,04,12,09,57,10.80
2020,04,12,09,58,10.80
2020,04,12,09,59,10.80
2020,04,12,10,00,10.80
2020,04,12,10,01,10.80
2020,04,12,10,02,10.80
2020,04,12,10,03,10.80
2020,04,12,10,04,10.80
2020,04,12,10,05,10.90
2020,04,12,10,06,10.90
2020,04,12,10,07,10.90
2020,04,12,10,08,10.90
2020,04,12,10,09,10.90
2020,04,12,10,10,11.00
2020,04,12,10,11,11.00
2020,04,12,10,12,11.00
2020,04,12,10,13,11.10
2020,04,12,10,14,11.20
2020,04,12,10,15,11.20
2020,04,12,10,16,11.30
2020,04,12,10,17,11.30
2020,04,12,10,18,11.30
2020,04,12,10,19,11.30
2020,04,12,10,20,11.30
2020,04,12,10,21,11.20
2020,04,12,10,22,11.20
2020,04,12,10,23,11.20
2020,04,12,10,24,11.20
2020,04,12,10,25,11.20
2020,04,12,10,26,11.30
2020,04,12,10,27,11.40
2020,04,12,10,28,11.40
2020,04,12,10,29,11.50
2020,04,12,10,30,11.40
2020,04,12,10,31,11.40
2020,04,12,10,32,11.50
2020,04,12,10,33,11.50
2020,04,12,10,34,11.50
2020,04,12,10,35,11.50
2020,04,12,10,36,11.50
2020,04,12,10,37,11.50
2020,04,12,10,38,11.40
2020,04,12,10,39,11.50
2020,04,12,10,40,11.50
2020,04,12,10,41,11.60
2020,04,12,10,42,11.60
2020,04,12,10,43,11.70
2020,04,12,10,44,11.70
2020,04,12,10,45,11.80
2020,04,12,10,46,11.80
2020,04,12,10,47,11.80
2020,04,12,10,48,11.70
2020,04,12,10,49,11.70
2020,04,12,10,50,11.70
2020,04,12,10,51,11.70
2020,04,12,10,52,11.70
2020,04,12,10,53,11.80
2020,04,12,10,54,11.80
2020,04,12,10,55,11.80
2020,04,12,10,56,11.80
2020,04,12,10,57,11.90
2020,04,12,10,58,11.90
2020,04,12,10,59,11.90
2020,04,12,11,00,11.90
2020,04,12,11,01,12.00
2020,04,12,11,02,12.00
2020,04,12,11,03,12.00
2020,04,12,11,04,12.00
2020,04,12,11,05,12.00
2020,04,12,11,06,12.00
2020,04,12,11,07,12.00
2020,04,12,11,08,12.00
2020,04,12,11,09,12.00
2020,04,12,11,10,12.00
2020,04,12,11,11,12.00
2020,04,12,11,12,12.00
2020,04,12,11,13,11.90
2020,04,12,11,14,11.90
2020,04,12,11,15,11.90
2020,04,12,11,16,11.90
2020,04,12,11,17,11.90
2020,04,12,11,18,12.00
2020,04,12,11,19,12.00
2020,04,12,11,20,12.00
2020,04,12,11,21,12.00
2020,04,12,11,22,12.10
2020,04,12,11,23,12.10
2020,04,12,11,24,12.10
2020,04,12,11,25,12.20
2020,04,12,11,26,12.20
2020,04,12,11,27,12.20
2020,04,12,11,28,12.30
2020,04,12,11,29,12.30
2020,04,12,11,30,12.40
2020,04,12,11,31,12.40
2020,04,12,11,32,12.40
2020,04,12,11,33,12.40
2020,04,12,11,34,12.40
2020,04,12,11,35,12.50
2020,04,12,11,36,12.50
2020,04,12,11,37,12.50
2020,04,12,11,38,12.50
2020,04,12,11,39,12.50
2020,04,12,11,40,12.50
2020,04,12,11,41,12.50
2020,04,12,11,42,12.50
2020,04,12,11,43,12.50
2020,04,12,11,44,12.60
2020,04,12,11,45,12.60
2020,04,12,11,46,12.60
2020,04,12,11,47,12.60
2020,04,12,11,48,12.70
2020,04,12,11,49,12.70
2020,04,12,11,50,12.80
2020,04,12,11,51,12.80
2020,04,12,11,52,12.80
2020,04,12,11,53,12.90
2020,04,12,11,54,12.90
2020,04,12,11,55,12.90
2020,04,12,11,56,13.00
2020,04,12,11,57,13.00
2020,04,12,11,58,13.00
2020,04,12,11,59,13.00
2020,04,12,12,00,13.10
2020,04,12,12,01,13.10
2020,04,12,12,02,13.10
2020,04,12,12,03,13.00
2020,04,12,12,04,12.90
2020,04,12,12,05,12.80
2020,04,12,12,06,12.80
2020,04,12,12,07,12.80
2020,04,12,12,08,12.80
2020,04,12,12,09,12.80
2020,04,12,12,10,12.70
2020,04,12,12,11,12.70
2020,04,12,12,12,12.70
2020,04,12,12,13,12.70
2020,04,12,12,14,12.80
2020,04,12,12,15,13.00
2020,04,12,12,16,13.00
2020,04,12,12,17,13.10
2020,04,12,12,18,13.10
2020,04,12,12,19,13.10
2020,04,12,12,20,13.10
2020,04,12,12,21,13.10
2020,04,12,12,22,13.10
2020,04,12,12,23,13.10
2020,04,12,12,24,13.10
2020,04,12,12,25,13.20
2020,04,12,12,26,13.20
2020,04,12,12,27,13.30
2020,04,12,12,28,13.20
2020,04,12,12,29,13.20
2020,04,12,12,30,13.20
2020,04,12,12,31,13.20
2020,04,12,12,32,13.20
2020,04,12,12,33,13.30
2020,04,12,12,34,13.30
2020,04,12,12,35,13.30
2020,04,12,12,36,13.30
2020,04,12,12,37,13.30
2020,04,12,12,38,13.20
2020,04,12,12,39,13.20
2020,04,12,12,40,13.20
2020,04,12,12,41,13.20
2020,04,12,12,42,13.20
2020,04,12,12,43,13.30
2020,04,12,12,44,13.30
2020,04,12,12,45,13.30
2020,04,12,12,46,13.30
2020,04,12,12,47,13.20
2020,04,12,12,48,13.20
2020,04,12,12,49,13.10
2020,04,12,12,50,13.00
2020,04,12,12,51,13.00
2020,04,12,12,52,13.00
2020,04,12,12,53,13.10
2020,04,12,12,54,13.10
2020,04,12,12,55,13.10
2020,04,12,12,56,13.20
2020,04,12,12,57,13.20
2020,04,12,12,58,13.20
2020,04,12,12,59,13.30
2020,04,12,13,00,13.30
2020,04,12,13,01,13.30
2020,04,12,13,02,13.30
2020,04,12,13,03,13.40
2020,04,12,13,04,13.40
2020,04,12,13,05,13.50
2020,04,12,13,06,13.50
2020,04,12,13,07,13.50
2020,04,12,13,08,13.60
2020,04,12,13,09,13.50
2020,04,12,13,10,13.40
2020,04,12,13,11,13.30
2020,04,12,13,12,13.30
2020,04,12,13,13,13.30
2020,04,12,13,14,13.30
2020,04,12,13,15,13.30
2020,04,12,13,16,13.40
2020,04,12,13,17,13.40
2020,04,12,13,18,13.50
2020,04,12,13,19,13.60
2020,04,12,13,20,13.60
2020,04,12,13,21,13.50
2020,04,12,13,22,13.50
2020,04,12,13,23,13.40
2020,04,12,13,24,13.40
2020,04,12,13,25,13.40
2020,04,12,13,26,13.50
2020,04,12,13,27,13.50
2020,04,12,13,28,13.60
2020,04,12,13,29,13.70
2020,04,12,13,30,13.70
2020,04,12,13,31,13.80
2020,04,12,13,32,13.80
2020,04,12,13,33,13.80
2020,04,12,13,34,13.90
2020,04,12,13,35,13.90
2020,04,12,13,36,14.00
2020,04,12,13,37,14.10
2020,04,12,13,38,14.00
2020,04,12,13,39,13.90
2020,04,12,13,40,13.90
2020,04,12,13,41,13.80
2020,04,12,13,42,13.80
2020,04,12,13,43,13.70
2020,04,12,13,44,13.70
2020,04,12,13,45,13.80
2020,04,12,13,46,13.80
2020,04,12,13,47,13.90
2020,04,12,13,48,13.90
2020,04,12,13,49,14.00
2020,04,12,13,50,14.00
2020,04,12,13,51,14.10
2020,04,12,13,52,14.10
2020,04,12,13,53,14.20
2020,04,12,13,54,14.20
2020,04,12,13,55,14.20
2020,04,12,13,56,14.30
2020,04,12,13,57,14.30
2020,04,12,13,58,14.40
2020,04,12,13,59,14.40
2020,04,12,14,00,14.30
2020,04,12,14,01,14.30
2020,04,12,14,02,14.30
2020,04,12,14,03,14.40
2020,04,12,14,04,14.40
2020,04,12,14,05,14.50
2020,04,12,14,06,14.60
2020,04,12,14,07,14.60
2020,04,12,14,08,14.60
2020,04,12,14,09,14.60
2020,04,12,14,10,14.60
2020,04,12,14,11,14.60
2020,04,12,14,12,14.70
2020,04,12,14,13,14.70
2020,04,12,14,14,14.80
2020,04,12,14,15,14.80
2020,04,12,14,16,14.90
2020,04,12,14,17,14.90
2020,04,12,14,18,14.90
2020,04,12,14,19,14.90
2020,04,12,14,20,14.90
2020,04,12,14,21,15.00
2020,04,12,14,22,15.00
2020,04,12,14,23,15.00
2020,04,12,14,24,15.10
2020,04,12,14,25,15.10
2020,04,12,14,26,15.10
2020,04,12,14,27,15.20
2020,04,12,14,28,15.20
2020,04,12,14,29,15.20
2020,04,12,14,30,15.20
2020,04,12,14,31,15.20
2020,04,12,14,32,15.10
2020,04,12,14,33,15.10
2020,04,12,14,34,15.10
2020,04,12,14,35,15.00
2020,04,12,14,36,15.00
2020,04,12,14,37,14.90
2020,04,12,14,38,14.90
2020,04,12,14,39,14.90
2020,04,12,14,40,14.90
2020,04,12,14,41,14.90
2020,04,12,14,42,14.90
2020,04,12,14,43,14.90
2020,04,12,14,44,14.90
2020,04,12,14,45,14.90
2020,04,12,14,46,14.90
2020,04,12,14,47,15.00
2020,04,12,14,48,15.00
2020,04,12,14,49,15.10
2020,04,12,14,50,15.10
2020,04,12,14,51,15.10
2020,04,12,14,52,15.20
2020,04,12,14,53,15.20
2020,04,12,14,54,15.20
2020,04,12,14,55,15.10
2020,04,12,14,56,15.00
2020,04,12,14,57,15.00
2020,04,12,14,58,15.00
2020,04,12,14,59,15.10
2020,04,12,15,00,15.10
2020,04,12,15,01,15.10
2020,04,12,15,02,15.10
2020,04,12,15,03,15.10
2020,04,12,15,04,15.10
2020,04,12,15,05,15.10
2020,04,12,15,06,15.10
2020,04,12,15,07,15.10
2020,04,12,15,08,15.10
2020,04,12,15,09,15.00
2020,04,12,15,10,14.90
2020,04,12,15,11,14.90
2020,04,12,15,12,14.90
2020,04,12,15,13,14.80
2020,04,12,15,14,14.90
2020,04,12,15,15,14.90
2020,04,12,15,16,14.90
2020,04,12,15,17,14.80
2020,04,12,15,18,14.80
2020,04,12,15,19,14.90
2020,04,12,15,20,14.90
2020,04,12,15,21,14.90
2020,04,12,15,22,15.00
2020,04,12,15,23,15.10
2020,04,12,15,24,15.20
2020,04,12,15,25,15.20
2020,04,12,15,26,15.30
2020,04,12,15,27,15.20
2020,04,12,15,28,15.20
2020,04,12,15,29,15.20
2020,04,12,15,30,15.10
2020,04,12,15,31,15.20
2020,04,12,15,32,15.20
2020,04,12,15,33,15.10
2020,04,12,15,34,15.10
2020,04,12,15,35,15.10
2020,04,12,15,36,15.10
2020,04,12,15,37,15.10
2020,04,12,15,38,15.10
2020,04,12,15,39,15.00
2020,04,12,15,40,15.00
2020,04,12,15,41,14.90
2020,04,12,15,42,14.90
2020,04,12,15,43,14.80
2020,04,12,15,44,14.70
2020,04,12,15,45,14.80
2020,04,12,15,46,14.80
2020,04,12,15,47,15.00
2020,04,12,15,48,15.10
2020,04,12,15,49,15.10
2020,04,12,15,50,15.10
2020,04,12,15,51,15.20
2020,04,12,15,52,15.20
2020,04,12,15,53,15.30
2020,04,12,15,54,15.30
2020,04,12,15,55,15.30
2020,04,12,15,56,15.30
2020,04,12,15,57,15.20
2020,04,12,15,58,15.20
2020,04,12,15,59,15.10
2020,04,12,16,00,15.10
2020,04,12,16,01,15.10
2020,04,12,16,02,15.20
2020,04,12,16,03,15.20
2020,04,12,16,04,15.30
2020,04,12,16,05,15.30
2020,04,12,16,06,15.30
2020,04,12,16,07,15.30
2020,04,12,16,08,15.30
2020,04,12,16,09,15.30
2020,04,12,16,10,15.30
2020,04,12,16,11,15.40
2020,04,12,16,12,15.40
2020,04,12,16,13,15.40
2020,04,12,16,14,15.40
2020,04,12,16,15,15.40
2020,04,12,16,16,15.30
2020,04,12,16,17,15.30
2020,04,12,16,18,15.30
2020,04,12,16,19,15.30
2020,04,12,16,20,15.30
2020,04,12,16,21,15.30
2020,04,12,16,22,15.30
2020,04,12,16,23,15.40
2020,04,12,16,24,15.40
2020,04,12,16,25,15.40
2020,04,12,16,26,15.50
2020,04,12,16,27,15.50
2020,04,12,16,28,15.60
2020,04,12,16,29,15.60
2020,04,12,16,30,15.60
2020,04,12,16,31,15.60
2020,04,12,16,32,15.60
2020,04,12,16,33,15.60
2020,04,12,16,34,15.60
2020,04,12,16,35,15.70
2020,04,12,16,36,15.60
2020,04,12,16,37,15.60
2020,04,12,16,38,15.60
2020,04,12,16,39,15.60
2020,04,12,16,40,15.50
2020,04,12,16,41,15.50
2020,04,12,16,42,15.50
2020,04,12,16,43,15.50
2020,04,12,16,44,15.50
2020,04,12,16,45,15.50
2020,04,12,16,46,15.50
2020,04,12,16,47,15.60
2020,04,12,16,48,15.60
2020,04,12,16,49,15.60
2020,04,12,16,50,15.60
2020,04,12,16,51,15.60
2020,04,12,16,52,15.60
2020,04,12,16,53,15.70
2020,04,12,16,54,15.70
2020,04,12,16,55,15.70
2020,04,12,16,56,15.60
2020,04,12,16,57,15.60
2020,04,12,16,58,15.50
2020,04,12,16,59,15.50
2020,04,12,17,00,15.40
2020,04,12,17,01,15.30
2020,04,12,17,02,15.20
2020,04,12,17,03,15.10
2020,04,12,17,04,15.00
2020,04,12,17,05,14.80
2020,04,12,17,06,14.70
2020,04,12,17,07,14.70
2020,04,12,17,08,14.60
2020,04,12,17,09,14.60
2020,04,12,17,10,14.60
2020,04,12,17,11,14.60
2020,04,12,17,12,14.60
2020,04,12,17,13,14.60
2020,04,12,17,14,14.60
2020,04,12,17,15,14.60
2020,04,12,17,16,14.60
2020,04,12,17,17,14.60
2020,04,12,17,18,14.50
2020,04,12,17,19,14.50
2020,04,12,17,20,14.50
2020,04,12,17,21,14.60
2020,04,12,17,22,14.60
2020,04,12,17,23,14.50
2020,04,12,17,24,14.50
2020,04,12,17,25,14.40
2020,04,12,17,26,14.40
2020,04,12,17,27,14.40
2020,04,12,17,28,14.40
2020,04,12,17,29,14.50
2020,04,12,17,30,14.70
2020,04,12,17,31,14.70
2020,04,12,17,32,14.80
2020,04,12,17,33,14.80
2020,04,12,17,34,14.80
2020,04,12,17,35,14.80
2020,04,12,17,36,14.80
2020,04,12,17,37,14.80
2020,04,12,17,38,14.80
2020,04,12,17,39,14.80
2020,04,12,17,40,14.80
2020,04,12,17,41,14.80
2020,04,12,17,42,14.80